YO4FZV-11 Weather Reports


time (UTC)temp
F
wind
direction
speed
knots
gust
knots
rain 1hr
in
rain 24hr
in
rain mn
in
humidity
%
barometer
mb
20260502230835 38 337 1.7 1.7 0.00 0.00 0.00 79 1019.1
20260502230335 38 0 1.7 1.7 0.00 0.00 0.00 79 1019.1
20260502225835 38 337 1.7 2.6 0.00 0.00 0.00 79 1019.2
20260502225335 38 0 0.9 2.6 0.00 0.00 0.00 79 1019.3
20260502224835 37 0 2.6 2.6 0.00 0.00 0.00 80 1019.4
20260502224335 37 337 0.9 2.6 0.00 0.00 0.00 80 1019.4
20260502223835 37 337 0.0 3.5 0.00 0.00 0.00 80 1019.4
20260502223335 37 22 0.0 1.7 0.00 0.00 0.00 80 1019.5
20260502222835 37 0 0.0 3.5 0.00 0.00 0.00 81 1019.6
20260502222336 37 337 0.9 0.9 0.00 0.00 0.00 81 1019.5
20260502221835 37 315 0.0 1.7 0.00 0.00 0.00 81 1019.6
20260502221335 37 337 0.0 2.6 0.00 0.00 0.00 81 1019.5
20260502220835 37 337 1.7 1.7 0.00 0.00 0.00 82 1019.6
20260502220335 36 337 0.0 2.6 0.00 0.00 0.00 82 1019.6
20260502215835 36 315 0.0 1.7 0.00 0.00 0.00 82 1019.7
20260502215335 36 315 0.0 1.7 0.00 0.00 0.00 82 1019.7
20260502214835 35 315 1.7 1.7 0.00 0.00 0.00 82 1019.8
20260502214335 35 0 0.0 0.9 0.00 0.00 0.00 82 1019.8
20260502213835 35 0 0.0 0.0 0.00 0.00 0.00 81 1019.8
20260502213335 36 337 0.0 0.9 0.00 0.00 0.00 81 1019.8
20260502212835 36 22 0.0 1.7 0.00 0.00 0.00 82 1019.8
20260502212335 36 337 0.0 1.7 0.00 0.00 0.00 81 1019.8
20260502211835 35 315 1.7 1.7 0.00 0.00 0.00 81 1019.9
20260502211335 36 337 0.0 0.0 0.00 0.00 0.00 80 1019.9
20260502210835 36 0 0.0 1.7 0.00 0.00 0.00 80 1019.9
20260502210336 37 22 1.7 1.7 0.00 0.00 0.00 80 1019.9
20260502205835 37 337 0.0 0.0 0.00 0.00 0.00 80 1019.9
20260502205335 37 315 0.0 0.9 0.00 0.00 0.00 80 1019.9
20260502204835 37 337 0.0 1.7 0.00 0.00 0.00 80 1019.8
20260502204335 37 337 0.9 0.9 0.00 0.00 0.00 79 1019.9
20260502203835 37 337 0.0 0.9 0.00 0.00 0.00 79 1019.9
20260502203335 38 337 0.0 0.9 0.00 0.00 0.00 79 1020.0
20260502202835 38 315 0.0 1.7 0.00 0.00 0.00 79 1019.9
20260502202335 38 315 0.9 1.7 0.00 0.00 0.00 79 1020.0
20260502201835 38 337 0.0 1.7 0.00 0.00 0.00 79 1020.1
20260502201335 38 337 0.0 1.7 0.00 0.00 0.00 79 1020.1
20260502200835 38 337 0.0 1.7 0.00 0.00 0.00 79 1020.0
20260502200335 38 337 0.0 0.9 0.00 0.00 0.00 79 1020.1
20260502195835 38 337 0.9 0.9 0.00 0.00 0.00 79 1020.2
20260502195335 38 337 0.0 0.9 0.00 0.00 0.00 79 1020.2
20260502194835 38 0 0.9 1.7 0.00 0.00 0.00 79 1020.2
20260502194335 38 337 0.9 0.9 0.00 0.00 0.00 79 1020.2
20260502193836 38 337 0.0 1.7 0.00 0.00 0.00 80 1020.2
20260502193336 38 0 0.9 1.7 0.00 0.00 0.00 80 1020.2
20260502192836 38 337 0.9 1.7 0.00 0.00 0.00 80 1020.2
20260502192336 38 315 0.0 1.7 0.00 0.00 0.00 80 1020.2
20260502191836 39 337 0.0 1.7 0.00 0.00 0.00 80 1020.2
20260502191336 39 0 0.9 1.7 0.00 0.00 0.00 81 1020.2
20260502190836 39 337 0.9 1.7 0.00 0.00 0.00 80 1020.2
20260502190336 39 0 1.7 1.7 0.00 0.00 0.00 80 1020.2
20260502185836 39 337 1.7 1.7 0.00 0.00 0.00 80 1020.2
20260502185336 39 337 0.0 1.7 0.00 0.00 0.00 80 1020.1
20260502184836 39 337 0.0 0.9 0.00 0.00 0.00 80 1020.0
20260502184336 39 337 0.9 1.7 0.00 0.00 0.00 80 1020.1
20260502183836 39 0 0.0 1.7 0.00 0.00 0.00 80 1019.9
20260502183336 40 0 0.0 1.7 0.00 0.00 0.00 80 1019.9
20260502182836 40 315 0.9 1.7 0.00 0.00 0.00 80 1020.0
20260502182336 40 0 0.0 1.7 0.00 0.00 0.00 80 1020.2
20260502181836 40 0 0.9 1.7 0.00 0.00 0.00 80 1020.3
20260502181336 40 337 0.9 1.7 0.00 0.00 0.00 80 1020.2
20260502180836 40 22 0.0 1.7 0.00 0.00 0.00 80 1020.0
20260502180336 40 0 0.0 1.7 0.00 0.00 0.00 80 1019.9
20260502170336 45 45 0.0 1.7 0.00 0.00 0.00 71 1019.5
20260502164336 47 90 2.6 5.2 0.00 0.00 0.00 68 1019.4
20260502163836 48 90 1.7 4.3 0.00 0.00 0.00 68 1019.4
20260502163336 47 45 0.9 1.7 0.00 0.00 0.00 68 1019.3
20260502162836 47 22 0.0 0.9 0.00 0.00 0.00 69 1019.3
20260502162336 47 45 0.9 1.7 0.00 0.00 0.00 68 1019.3
20260502161836 47 45 0.9 0.9 0.00 0.00 0.00 68 1019.3
20260502161336 47 45 0.0 0.9 0.00 0.00 0.00 68 1019.3
20260502160836 47 45 0.0 2.6 0.00 0.00 0.00 67 1019.3
20260502160336 47 67 0.9 1.7 0.00 0.00 0.00 66 1019.3
20260502152336 51 45 1.7 3.5 0.00 0.00 0.00 62 1019.4
20260502151836 51 45 3.5 3.5 0.00 0.00 0.00 61 1019.4
20260502151336 51 22 1.7 4.3 0.00 0.00 0.00 61 1019.5
20260502150836 52 67 0.9 5.2 0.00 0.00 0.00 62 1019.5
20260502150336 52 45 1.7 4.3 0.00 0.00 0.00 62 1019.5
20260502130336 60 157 3.5 7.8 0.00 0.00 0.00 50 1019.6
20260502123336 57 90 0.9 3.5 0.00 0.00 0.00 57 1019.8
20260502122836 55 22 3.5 5.2 0.00 0.00 0.00 58 1019.8
20260502122336 54 67 2.6 5.2 0.00 0.00 0.00 59 1019.9
20260502121836 53 45 3.5 7.0 0.00 0.00 0.00 59 1020.0
20260502121336 53 45 6.1 7.0 0.00 0.00 0.00 59 1020.0
20260502120836 53 90 3.5 7.8 0.00 0.00 0.00 60 1020.0
20260502120336 52 67 7.0 8.7 0.00 0.00 0.00 61 1020.1
20260502115836 53 45 5.2 12.2 0.00 0.00 0.00 60 1020.2
20260502115336 54 22 7.8 8.7 0.00 0.00 0.00 58 1020.2
20260502114836 55 22 3.5 4.3 0.00 0.00 0.00 55 1020.1
20260502114336 56 45 4.3 6.1 0.00 0.00 0.00 54 1020.1
20260502113836 57 67 3.5 8.7 0.00 0.00 0.00 54 1020.1
20260502113336 57 112 3.5 5.2 0.00 0.00 0.00 55 1020.1
20260502112836 55 45 1.7 9.6 0.00 0.00 0.00 57 1020.1
20260502112337 55 112 3.5 7.8 0.00 0.00 0.00 59 1020.1
20260502111836 54 90 2.6 6.1 0.00 0.00 0.00 59 1020.0
20260502111336 54 135 4.3 7.0 0.00 0.00 0.00 58 1019.9
20260502110836 55 112 4.3 7.8 0.00 0.00 0.00 54 1019.8
20260502110336 57 45 2.6 7.0 0.00 0.00 0.00 52 1019.8
20260502105836 59 22 4.3 8.7 0.00 0.00 0.00 49 1019.9
20260502105336 61 0 5.2 9.6 0.00 0.00 0.00 47 1019.9
20260502104836 61 67 0.9 5.2 0.00 0.00 0.00 45 1019.9
20260502104336 59 45 2.6 6.1 0.00 0.00 0.00 47 1019.9
20260502103836 57 22 3.5 5.2 0.00 0.00 0.00 49 1019.9
20260502103336 55 22 6.1 7.0 0.00 0.00 0.00 51 1019.8
20260502102836 54 22 3.5 3.5 0.00 0.00 0.00 51 1019.8
20260502102336 53 22 2.6 8.7 0.00 0.00 0.00 52 1019.9
20260502101836 53 67 8.7 12.2 0.00 0.00 0.00 52 1019.8
20260502101336 54 22 10.4 12.2 0.00 0.00 0.00 52 1019.8
20260502100836 55 22 11.3 15.6 0.00 0.00 0.00 51 1019.9
20260502100336 57 22 7.8 12.2 0.00 0.00 0.00 47 1019.8
20260502091337 64 135 1.7 7.8 0.00 0.00 0.00 46 1019.7
20260502090836 65 45 3.5 5.2 0.00 0.00 0.00 47 1019.8
20260502090336 64 45 3.5 5.2 0.00 0.00 0.00 48 1019.9
20260502071337 54 45 2.6 5.2 0.00 0.00 0.00 54 1020.2
20260502070837 53 0 2.6 5.2 0.00 0.00 0.00 57 1020.1
20260502070337 52 0 2.6 5.2 0.00 0.00 0.00 57 1019.9
20260502065837 52 337 6.1 6.1 0.00 0.00 0.00 57 1019.9
20260502065337 52 22 6.1 7.0 0.00 0.00 0.00 58 1020.0
20260502064837 52 0 7.0 7.0 0.00 0.00 0.00 58 1020.0
20260502064337 52 337 2.6 7.8 0.00 0.00 0.00 58 1020.0
20260502063837 51 0 1.7 5.2 0.00 0.00 0.00 58 1019.9
20260502063337 51 0 0.9 4.3 0.00 0.00 0.00 59 1019.9
20260502062837 51 0 1.7 6.1 0.00 0.00 0.00 58 1019.9
20260502062337 52 22 1.7 5.2 0.00 0.00 0.00 58 1019.9
20260502061837 52 0 1.7 4.3 0.00 0.00 0.00 57 1019.7
20260502061337 52 22 3.5 5.2 0.00 0.00 0.00 58 1019.7
20260502060837 52 0 1.7 5.2 0.00 0.00 0.00 57 1019.7
20260502060337 52 0 2.6 7.8 0.00 0.00 0.00 57 1019.8
20260502055837 52 0 1.7 5.2 0.00 0.00 0.00 57 1019.7
20260502055337 52 337 0.0 6.1 0.00 0.00 0.00 57 1019.8
20260502054837 52 292 2.6 4.3 0.00 0.00 0.00 57 1019.7
20260502054337 52 0 3.5 3.5 0.00 0.00 0.00 57 1019.8
20260502053837 52 0 1.7 3.5 0.00 0.00 0.00 59 1019.8
20260502053337 51 247 0.0 1.7 0.00 0.00 0.00 60 1019.7
20260502052837 51 315 0.0 3.5 0.00 0.00 0.00 59 1019.8
20260502052337 51 337 1.7 2.6 0.00 0.00 0.00 60 1019.8
20260502051837 50 315 0.9 1.7 0.00 0.00 0.00 61 1019.9
20260502051337 50 315 1.7 1.7 0.00 0.00 0.00 61 1019.9
20260502050837 50 315 0.0 1.7 0.00 0.00 0.00 61 1019.9
20260502050337 49 337 0.0 1.7 0.00 0.00 0.00 62 1019.9
20260502045837 49 315 1.7 1.7 0.00 0.00 0.00 62 1019.5
20260502045337 49 22 0.0 0.9 0.00 0.00 0.00 62 1019.4
20260502044837 48 337 0.0 0.9 0.00 0.00 0.00 62 1019.3
20260502044337 48 22 0.9 1.7 0.00 0.00 0.00 62 1019.4
20260502043837 48 0 0.0 3.5 0.00 0.00 0.00 62 1019.4
20260502043337 48 337 2.6 2.6 0.00 0.00 0.00 62 1019.6
20260502042837 47 315 1.7 3.5 0.00 0.00 0.00 61 1019.5
20260502042337 47 315 0.9 2.6 0.00 0.00 0.00 61 1019.6
20260502041837 47 315 2.6 3.5 0.00 0.00 0.00 61 1019.6
20260502041337 47 337 0.0 2.6 0.00 0.00 0.00 61 1019.5
20260502040837 47 22 1.7 3.5 0.00 0.00 0.00 61 1019.6
20260502040337 47 0 1.7 2.6 0.00 0.00 0.00 61 1019.6
20260502035837 47 0 1.7 3.5 0.00 0.00 0.00 61 1019.6
20260502035337 46 337 1.7 2.6 0.00 0.00 0.00 61 1019.6
20260502034837 46 315 2.6 2.6 0.00 0.00 0.00 61 1019.6
20260502034337 45 315 1.7 3.5 0.00 0.00 0.00 61 1019.5
20260502033837 45 315 1.7 3.5 0.00 0.00 0.00 61 1019.5
20260502033337 44 292 0.9 3.5 0.00 0.00 0.00 62 1019.4
20260502032837 44 292 3.5 4.3 0.00 0.00 0.00 63 1019.5
20260502032337 43 337 0.0 3.5 0.00 0.00 0.00 63 1019.6
20260502031837 43 337 1.7 4.3 0.00 0.00 0.00 63 1019.6
20260502031337 43 292 1.7 3.5 0.00 0.00 0.00 62 1019.5
20260502030837 43 270 0.9 3.5 0.00 0.00 0.00 62 1019.6
20260502030337 43 292 1.7 2.6 0.00 0.00 0.00 61 1019.6
20260502025837 43 315 2.6 4.3 0.00 0.00 0.00 61 1019.5
20260502025337 42 0 3.5 5.2 0.00 0.00 0.00 61 1019.5
20260502024837 42 292 1.7 2.6 0.00 0.00 0.00 61 1019.5
20260502024337 42 337 0.9 4.3 0.00 0.00 0.00 61 1019.5
20260502023837 42 292 4.3 5.2 0.00 0.00 0.00 61 1019.5
20260502023337 42 292 0.9 2.6 0.00 0.00 0.00 60 1019.6
20260502022837 43 292 0.9 3.5 0.00 0.00 0.00 59 1019.6
20260502022337 43 270 0.0 4.3 0.00 0.00 0.00 59 1019.6
20260502021837 42 292 5.2 5.2 0.00 0.00 0.00 60 1019.7
20260502021337 42 337 0.0 5.2 0.00 0.00 0.00 60 1019.7
20260502020837 42 292 0.9 3.5 0.00 0.00 0.00 59 1019.7
20260502020337 43 225 0.9 4.3 0.00 0.00 0.00 59 1019.7
20260502015837 43 292 4.3 4.3 0.00 0.00 0.00 59 1019.7
20260502015337 43 337 1.7 5.2 0.00 0.00 0.00 58 1019.8
20260502014837 43 315 4.3 4.3 0.00 0.00 0.00 58 1019.8
20260502014337 43 270 1.7 3.5 0.00 0.00 0.00 58 1019.7
20260502013837 43 315 0.9 3.5 0.00 0.00 0.00 58 1019.8
20260502013337 43 292 2.6 4.3 0.00 0.00 0.00 58 1019.8
20260502012837 43 315 1.7 5.2 0.00 0.00 0.00 58 1019.8
20260502012337 43 292 1.7 2.6 0.00 0.00 0.00 58 1019.8
20260502011837 43 270 1.7 3.5 0.00 0.00 0.00 59 1019.9
20260502011337 43 0 1.7 5.2 0.00 0.00 0.00 59 1020.0
20260502010837 43 292 2.6 3.5 0.00 0.00 0.00 59 1020.0
20260502010337 43 337 2.6 5.2 0.00 0.00 0.00 59 1020.0
20260502005837 43 270 0.9 5.2 0.00 0.00 0.00 59 1020.1
20260502005337 43 270 0.9 6.1 0.00 0.00 0.00 59 1020.0
20260502004837 43 292 6.1 7.0 0.00 0.00 0.00 59 1020.1
20260502004337 43 292 4.3 7.0 0.00 0.00 0.00 60 1020.1
20260502003837 43 292 1.7 4.3 0.00 0.00 0.00 61 1020.2
20260502003337 43 270 0.9 5.2 0.00 0.00 0.00 61 1020.2
20260502002837 43 315 1.7 3.5 0.00 0.00 0.00 62 1020.2
20260502002337 43 315 1.7 3.5 0.00 0.00 0.00 62 1020.3
20260502001837 42 270 1.7 2.6 0.00 0.00 0.00 62 1020.4
20260502001337 42 270 0.0 2.6 0.00 0.00 0.00 63 1020.4
20260502000837 42 315 1.7 2.6 0.00 0.00 0.00 64 1020.4
20260502000339 42 292 0.9 3.5 0.00 0.00 0.00 65 1020.4
20260501235837 42 270 0.0 2.6 0.00 0.00 0.00 66 1020.5
20260501235337 41 292 0.9 3.5 0.00 0.00 0.00 67 1020.5
20260501234837 40 292 1.7 2.6 0.00 0.00 0.00 69 1020.5
20260501234337 39 292 0.9 2.6 0.00 0.00 0.00 71 1020.5
20260501233837 38 270 0.0 3.5 0.00 0.00 0.00 73 1020.6
20260501233337 37 337 0.9 1.7 0.00 0.00 0.00 75 1020.6
20260501232837 35 292 0.0 1.7 0.00 0.00 0.00 75 1020.6
20260501232337 35 45 0.0 0.0 0.00 0.00 0.00 75 1020.7
20260501231837 34 292 0.0 0.0 0.00 0.00 0.00 75 1020.8
20260501231337 35 180 0.0 0.0 0.00 0.00 0.00 75 1020.8